UAL133 PKMJ-PHNL

Flight info

Callsign UAL133
Flight time N/A
Altitude 39000
Route MAJ R584 MAZZA/N0483F410 R584 CHOKO OPACA4
Aircraft B788/H-L/3033

Departure

Time N/A
Airport Marshall Islands International Airport (PKMJ)

Arrival

Time 2026-05-03 22:11
Airport Daniel K. Inouye International Airport (PHNL)
Time Latitude Longitude Altitude Speed Heading
2026-05-03 20:15 15.16855 -173.14990 38809 ft 524 kts 61°
2026-05-03 20:15 15.20117 -173.08240 38821 ft 525 kts 61°
2026-05-03 20:16 15.23363 -173.01520 38815 ft 525 kts 61°
2026-05-03 20:16 15.26627 -172.94753 38811 ft 524 kts 61°
2026-05-03 20:17 15.29876 -172.88013 38823 ft 525 kts 61°
2026-05-03 20:17 15.33154 -172.81206 38810 ft 524 kts 61°
2026-05-03 20:18 15.36409 -172.74441 38817 ft 524 kts 61°
2026-05-03 20:18 15.39646 -172.67706 38820 ft 525 kts 61°
2026-05-03 20:19 15.42902 -172.60926 38808 ft 524 kts 61°
2026-05-03 20:19 15.46156 -172.54142 38822 ft 525 kts 61°
2026-05-03 20:20 15.49406 -172.47363 38814 ft 525 kts 62°
2026-05-03 20:20 15.52648 -172.40591 38812 ft 524 kts 62°
2026-05-03 20:21 15.55892 -172.33810 38822 ft 525 kts 62°
2026-05-03 20:21 15.59112 -172.27074 38809 ft 524 kts 62°
2026-05-03 20:22 15.62355 -172.20279 38818 ft 524 kts 62°
2026-05-03 20:22 15.65600 -172.13479 38818 ft 525 kts 62°
2026-05-03 20:23 15.68834 -172.06692 38809 ft 524 kts 62°
2026-05-03 20:23 15.72045 -171.99940 38828 ft 521 kts 61°
2026-05-03 20:24 15.75216 -171.93276 38803 ft 515 kts 62°
2026-05-03 20:24 15.78421 -171.86541 38827 ft 526 kts 62°
2026-05-03 20:25 15.81121 -171.80853 38813 ft 525 kts 62°
2026-05-03 20:25 15.84335 -171.74073 38813 ft 524 kts 62°
2026-05-03 20:26 15.87558 -171.67272 38822 ft 525 kts 62°
2026-05-03 20:26 15.90789 -171.60446 38809 ft 524 kts 62°
2026-05-03 20:27 15.93951 -171.53620 38819 ft 525 kts 62°
2026-05-03 20:27 15.97077 -171.46745 38818 ft 525 kts 63°
2026-05-03 20:28 16.00180 -171.39865 38809 ft 525 kts 63°
2026-05-03 20:28 16.03257 -171.33030 38823 ft 525 kts 63°
2026-05-03 20:29 16.06356 -171.26140 38812 ft 525 kts 63°
2026-05-03 20:29 16.09449 -171.19256 38815 ft 525 kts 63°
2026-05-03 20:30 16.12544 -171.12361 38821 ft 526 kts 63°
2026-05-03 20:30 16.15629 -171.05482 38889 ft 522 kts 63°
2026-05-03 20:31 16.18706 -170.98615 38975 ft 525 kts 63°
2026-05-03 20:31 16.21789 -170.91728 38992 ft 524 kts 63°
2026-05-03 20:32 16.24861 -170.84855 38998 ft 524 kts 63°
2026-05-03 20:32 16.27932 -170.77979 38986 ft 524 kts 63°
2026-05-03 20:33 16.31005 -170.71093 38996 ft 524 kts 63°
2026-05-03 20:33 16.34056 -170.64248 38994 ft 524 kts 63°
2026-05-03 20:34 16.37120 -170.57366 38987 ft 524 kts 63°
2026-05-03 20:34 16.40184 -170.50477 39000 ft 524 kts 63°
2026-05-03 20:35 16.43258 -170.43558 38988 ft 524 kts 63°
2026-05-03 20:35 16.46313 -170.36674 38993 ft 524 kts 63°
2026-05-03 20:36 16.49375 -170.29770 38998 ft 524 kts 63°
2026-05-03 20:36 16.52412 -170.22912 38986 ft 524 kts 63°
2026-05-03 20:37 16.55464 -170.16013 38998 ft 524 kts 63°
2026-05-03 20:37 16.58517 -170.09108 38992 ft 524 kts 63°
2026-05-03 20:38 16.61570 -170.02190 38989 ft 524 kts 63°
2026-05-03 20:38 16.64609 -169.95301 39001 ft 523 kts 63°
2026-05-03 20:39 16.67640 -169.88419 38983 ft 520 kts 63°
2026-05-03 20:39 16.70660 -169.81559 39001 ft 525 kts 63°
2026-05-03 20:40 16.73697 -169.74653 38988 ft 524 kts 63°
2026-05-03 20:40 16.76729 -169.67747 38993 ft 524 kts 63°
2026-05-03 20:41 16.79767 -169.60821 38997 ft 525 kts 63°
2026-05-03 20:41 16.82788 -169.53927 38986 ft 523 kts 63°
2026-05-03 20:42 16.85817 -169.47008 38998 ft 524 kts 63°
2026-05-03 20:42 16.88848 -169.40076 38991 ft 524 kts 63°
2026-05-03 20:43 16.91875 -169.33145 38990 ft 524 kts 63°
2026-05-03 20:43 16.94902 -169.26209 39000 ft 524 kts 63°
2026-05-03 20:44 16.97916 -169.19294 38986 ft 524 kts 63°
2026-05-03 20:44 17.00939 -169.12348 38997 ft 524 kts 63°
2026-05-03 20:45 17.03942 -169.05445 38993 ft 524 kts 64°
2026-05-03 20:45 17.06956 -168.98504 38988 ft 524 kts 64°
2026-05-03 20:46 17.09972 -168.91553 39000 ft 524 kts 64°
2026-05-03 20:46 17.12989 -168.84592 38987 ft 524 kts 64°
2026-05-03 20:47 17.15976 -168.77694 38994 ft 524 kts 64°
2026-05-03 20:47 17.18982 -168.70745 38996 ft 525 kts 64°
2026-05-03 20:48 17.21989 -168.63783 38986 ft 524 kts 64°
2026-05-03 20:48 17.24991 -168.56825 38997 ft 524 kts 64°
2026-05-03 20:49 17.27987 -168.49875 38994 ft 524 kts 64°
2026-05-03 20:49 17.30983 -168.42914 38987 ft 524 kts 64°
2026-05-03 20:50 17.33976 -168.35956 39000 ft 524 kts 64°
2026-05-03 20:50 17.36957 -168.29017 38987 ft 524 kts 64°
2026-05-03 20:51 17.39945 -168.22051 38994 ft 524 kts 64°
2026-05-03 20:51 17.42929 -168.15092 38996 ft 525 kts 64°
2026-05-03 20:52 17.45921 -168.08102 38986 ft 524 kts 64°
2026-05-03 20:52 17.48888 -168.01162 38999 ft 524 kts 64°
2026-05-03 20:53 17.51859 -167.94208 38990 ft 524 kts 64°
2026-05-03 20:53 17.54838 -167.87225 38989 ft 523 kts 64°
2026-05-03 20:54 17.57797 -167.80280 39003 ft 523 kts 64°
2026-05-03 20:54 17.62263 -167.69787 38992 ft 524 kts 64°
2026-05-03 20:55 17.65215 -167.62840 38998 ft 525 kts 64°
2026-05-03 20:55 17.68184 -167.55843 38986 ft 524 kts 64°
2026-05-03 20:56 17.71144 -167.48861 38998 ft 524 kts 64°
2026-05-03 20:56 17.74092 -167.41900 38992 ft 524 kts 64°
2026-05-03 20:57 17.77049 -167.34909 38989 ft 524 kts 64°
2026-05-03 20:57 17.80012 -167.27894 39000 ft 525 kts 64°
2026-05-03 20:58 17.82960 -167.20908 38986 ft 524 kts 64°
2026-05-03 20:58 17.85909 -167.13911 38996 ft 524 kts 64°
2026-05-03 20:59 17.88865 -167.06889 38995 ft 525 kts 64°
2026-05-03 20:59 17.91793 -166.99925 38987 ft 524 kts 64°
2026-05-03 21:00 17.93760 -166.95243 38997 ft 524 kts 64°
2026-05-03 21:00 17.97685 -166.85888 38988 ft 524 kts 64°
2026-05-03 21:01 18.00625 -166.78871 38994 ft 524 kts 64°
2026-05-03 21:01 18.03564 -166.71850 38997 ft 525 kts 64°
2026-05-03 21:02 18.06480 -166.64873 38985 ft 524 kts 64°
2026-05-03 21:02 18.09407 -166.57861 38999 ft 524 kts 64°
2026-05-03 21:03 18.12337 -166.50834 38991 ft 524 kts 64°
2026-05-03 21:03 18.15260 -166.43816 38990 ft 524 kts 64°
2026-05-03 21:04 18.18186 -166.36783 38999 ft 525 kts 64°
2026-05-03 21:04 18.21110 -166.29744 38987 ft 524 kts 64°
2026-05-03 21:05 18.24028 -166.22713 38996 ft 524 kts 64°
2026-05-03 21:05 18.26451 -166.16866 38997 ft 525 kts 64°
2026-05-03 21:06 18.29364 -166.09832 38986 ft 524 kts 64°
2026-05-03 21:06 18.32277 -166.02788 38999 ft 524 kts 64°
2026-05-03 21:07 18.35190 -165.95735 38990 ft 524 kts 64°
2026-05-03 21:07 18.38094 -165.88696 38991 ft 524 kts 64°
2026-05-03 21:08 18.40980 -165.81691 38999 ft 525 kts 64°
2026-05-03 21:08 18.43887 -165.74627 38987 ft 524 kts 65°
2026-05-03 21:09 18.46775 -165.67600 38998 ft 524 kts 65°
2026-05-03 21:09 18.49667 -165.60555 38993 ft 525 kts 65°
2026-05-03 21:10 18.52567 -165.53482 38988 ft 524 kts 65°
2026-05-03 21:10 18.55462 -165.46411 39000 ft 525 kts 65°
2026-05-03 21:11 18.58334 -165.39391 38988 ft 524 kts 65°
2026-05-03 21:11 18.61220 -165.32323 38994 ft 524 kts 65°
2026-05-03 21:12 18.64105 -165.25253 38996 ft 525 kts 65°
2026-05-03 21:12 18.66990 -165.18173 38987 ft 524 kts 65°
2026-05-03 21:13 18.69871 -165.11092 38999 ft 525 kts 65°
2026-05-03 21:13 18.72730 -165.04057 38990 ft 524 kts 65°
2026-05-03 21:14 18.75599 -164.96988 38991 ft 524 kts 65°
2026-05-03 21:14 18.78475 -164.89893 38998 ft 525 kts 65°
2026-05-03 21:15 18.81339 -164.82819 38986 ft 524 kts 65°
2026-05-03 21:15 18.84205 -164.75732 38998 ft 524 kts 65°
2026-05-03 21:16 18.87055 -164.68676 38993 ft 525 kts 65°
2026-05-03 21:16 18.89917 -164.61579 38987 ft 524 kts 65°
2026-05-03 21:17 18.92291 -164.55687 38999 ft 525 kts 65°
2026-05-03 21:17 18.95631 -164.47385 38988 ft 524 kts 65°
2026-05-03 21:18 18.98465 -164.40330 38994 ft 524 kts 65°
2026-05-03 21:18 19.01316 -164.33228 38996 ft 525 kts 65°
2026-05-03 21:19 19.04160 -164.26130 38986 ft 524 kts 65°
2026-05-03 21:19 19.07005 -164.19020 39000 ft 525 kts 65°
2026-05-03 21:20 19.09850 -164.11904 38989 ft 524 kts 65°
2026-05-03 21:20 19.12688 -164.04794 38992 ft 524 kts 65°
2026-05-03 21:21 19.15522 -163.97685 38998 ft 525 kts 65°
2026-05-03 21:21 19.18339 -163.90610 38986 ft 524 kts 65°
2026-05-03 21:22 19.21170 -163.83490 38999 ft 525 kts 65°
2026-05-03 21:22 19.23996 -163.76373 38991 ft 525 kts 65°
2026-05-03 21:23 19.26822 -163.69246 38989 ft 524 kts 65°
2026-05-03 21:23 19.29636 -163.62141 38999 ft 521 kts 65°
2026-05-03 21:24 19.32442 -163.55047 38989 ft 524 kts 65°
2026-05-03 21:24 19.35262 -163.47909 38998 ft 525 kts 65°
2026-05-03 21:25 19.38064 -163.40804 38986 ft 524 kts 65°
2026-05-03 21:25 19.40875 -163.33669 38996 ft 525 kts 65°
2026-05-03 21:26 19.43686 -163.26525 38994 ft 525 kts 65°
2026-05-03 21:26 19.46487 -163.19394 38986 ft 524 kts 65°
2026-05-03 21:27 19.49273 -163.12295 39000 ft 525 kts 65°
2026-05-03 21:27 19.52096 -163.05090 38989 ft 525 kts 65°
2026-05-03 21:28 19.54870 -162.98001 38991 ft 524 kts 65°
2026-05-03 21:28 19.57667 -162.90845 38999 ft 525 kts 65°
2026-05-03 21:29 19.60461 -162.83684 38986 ft 524 kts 65°
2026-05-03 21:29 19.63252 -162.76523 38999 ft 525 kts 65°
2026-05-03 21:30 19.66050 -162.69413 38991 ft 525 kts 65°
2026-05-03 21:30 19.68896 -162.62291 38989 ft 524 kts 65°
2026-05-03 21:31 19.71764 -162.55149 39000 ft 525 kts 65°
2026-05-03 21:31 19.74625 -162.48026 38986 ft 524 kts 65°
2026-05-03 21:32 19.77483 -162.40900 38997 ft 524 kts 65°
2026-05-03 21:32 19.80336 -162.33777 38993 ft 525 kts 65°
2026-05-03 21:33 19.83187 -162.26646 38987 ft 524 kts 65°
2026-05-03 21:33 19.86041 -162.19499 39000 ft 525 kts 65°
2026-05-03 21:34 19.88873 -162.12399 38988 ft 524 kts 65°
2026-05-03 21:34 19.91719 -162.05252 38995 ft 524 kts 65°
2026-05-03 21:35 19.94565 -161.98097 38996 ft 525 kts 65°
2026-05-03 21:35 19.97408 -161.90940 38986 ft 524 kts 65°
2026-05-03 21:36 20.00218 -161.83856 38999 ft 525 kts 65°
2026-05-03 21:36 20.03057 -161.76689 38989 ft 525 kts 65°
2026-05-03 21:37 20.05886 -161.69536 38993 ft 524 kts 65°
2026-05-03 21:37 20.08711 -161.62383 38997 ft 525 kts 65°
2026-05-03 21:38 20.11535 -161.55224 38986 ft 524 kts 65°
2026-05-03 21:38 20.14352 -161.48075 38999 ft 520 kts 65°
2026-05-03 21:39 20.17140 -161.40987 38995 ft 525 kts 65°
2026-05-03 21:39 20.19957 -161.33817 38986 ft 525 kts 65°
2026-05-03 21:40 20.22771 -161.26643 38998 ft 525 kts 65°
2026-05-03 21:40 20.25582 -161.19469 38992 ft 525 kts 65°
2026-05-03 21:41 20.28390 -161.12289 38989 ft 524 kts 65°
2026-05-03 21:41 20.31198 -161.05101 38999 ft 525 kts 65°
2026-05-03 21:42 20.34000 -160.97918 38986 ft 524 kts 65°
2026-05-03 21:42 20.36732 -160.90765 38997 ft 525 kts 67°
2026-05-03 21:43 20.39232 -160.83430 38993 ft 526 kts 70°
2026-05-03 21:43 20.41230 -160.75929 38986 ft 526 kts 73°
2026-05-03 21:44 20.42983 -160.68336 38992 ft 527 kts 75°
2026-05-03 21:44 20.44634 -160.60712 38999 ft 528 kts 76°
2026-05-03 21:45 20.46268 -160.53085 38985 ft 527 kts 76°
2026-05-03 21:45 20.47887 -160.45526 38996 ft 527 kts 76°
2026-05-03 21:46 20.49525 -160.37878 38994 ft 528 kts 76°
2026-05-03 21:46 20.51146 -160.30293 38986 ft 527 kts 76°
2026-05-03 21:47 20.52776 -160.22652 39020 ft 527 kts 76°
2026-05-03 21:47 20.54404 -160.15005 38993 ft 527 kts 76°
2026-05-03 21:48 20.56022 -160.07382 38987 ft 527 kts 76°
2026-05-03 21:48 20.57632 -159.99782 39000 ft 528 kts 76°
2026-05-03 21:49 20.59245 -159.92150 38988 ft 527 kts 76°
2026-05-03 21:49 20.60855 -159.84513 38993 ft 527 kts 76°
2026-05-03 21:50 20.62466 -159.76857 38997 ft 528 kts 76°
2026-05-03 21:50 20.64070 -159.69217 38987 ft 526 kts 76°
2026-05-03 21:51 20.64596 -159.66705 38820 ft 525 kts 76°
2026-05-03 21:51 20.65392 -159.62900 38221 ft 522 kts 76°
2026-05-03 21:51 20.66432 -159.57916 37400 ft 512 kts 76°
2026-05-03 21:51 20.67202 -159.54227 36770 ft 505 kts 76°
2026-05-03 21:52 20.67959 -159.50597 36149 ft 500 kts 76°
2026-05-03 21:52 20.68471 -159.48141 35728 ft 499 kts 76°
2026-05-03 21:52 20.69220 -159.44551 35115 ft 502 kts 76°
2026-05-03 21:52 20.69982 -159.40897 34487 ft 505 kts 76°
2026-05-03 21:53 20.70746 -159.37224 33850 ft 505 kts 76°
2026-05-03 21:53 20.71502 -159.33584 33215 ft 504 kts 76°
2026-05-03 21:53 20.72262 -159.29916 32574 ft 503 kts 76°
2026-05-03 21:53 20.73002 -159.26293 31941 ft 495 kts 75°
2026-05-03 21:54 20.73732 -159.22737 31322 ft 484 kts 75°
2026-05-03 21:54 20.74461 -159.19246 30720 ft 480 kts 75°
2026-05-03 21:54 20.75183 -159.15757 30124 ft 478 kts 75°
2026-05-03 21:54 20.75895 -159.12308 29528 ft 472 kts 76°
2026-05-03 21:55 20.76600 -159.08895 28908 ft 467 kts 76°
2026-05-03 21:55 20.77285 -159.05568 28299 ft 462 kts 76°
2026-05-03 21:55 20.77970 -159.02236 27716 ft 457 kts 76°
2026-05-03 21:55 20.78658 -158.98888 27149 ft 454 kts 76°
2026-05-03 21:56 20.79392 -158.95627 26579 ft 450 kts 73°
2026-05-03 21:56 20.80493 -158.92553 26044 ft 445 kts 65°
2026-05-03 21:56 20.81996 -158.89694 25481 ft 441 kts 57°
2026-05-03 21:56 20.83827 -158.87068 24968 ft 437 kts 51°
2026-05-03 21:57 20.85736 -158.84555 24435 ft 434 kts 50°
2026-05-03 21:57 20.87652 -158.82065 23968 ft 430 kts 50°
2026-05-03 21:57 20.89545 -158.79602 23538 ft 428 kts 50°
2026-05-03 21:57 20.91435 -158.77137 23076 ft 430 kts 50°
2026-05-03 21:58 20.93298 -158.74701 22197 ft 423 kts 50°
2026-05-03 21:58 20.95158 -158.72265 21500 ft 420 kts 50°
2026-05-03 21:58 20.96997 -158.69860 20755 ft 416 kts 50°
2026-05-03 21:58 20.98843 -158.67461 19985 ft 414 kts 50°
2026-05-03 21:59 21.00669 -158.65101 19245 ft 409 kts 50°
2026-05-03 21:59 21.02482 -158.62769 18491 ft 405 kts 50°
2026-05-03 21:59 21.04262 -158.60489 17748 ft 400 kts 50°
2026-05-03 21:59 21.06063 -158.58185 16986 ft 395 kts 50°
2026-05-03 22:00 21.07813 -158.55945 16236 ft 391 kts 50°
2026-05-03 22:00 21.09549 -158.53724 15485 ft 386 kts 50°
2026-05-03 22:00 21.11239 -158.51561 14743 ft 381 kts 50°
2026-05-03 22:00 21.12929 -158.49398 13992 ft 377 kts 50°
2026-05-03 22:01 21.14606 -158.47248 13239 ft 372 kts 50°
2026-05-03 22:01 21.16246 -158.45139 12485 ft 362 kts 50°
2026-05-03 22:01 21.17822 -158.43106 11736 ft 350 kts 50°
2026-05-03 22:01 21.19357 -158.41119 10980 ft 339 kts 50°
2026-05-03 22:02 21.20837 -158.39199 10181 ft 331 kts 50°
2026-05-03 22:02 21.22283 -158.37321 9181 ft 329 kts 50°
2026-05-03 22:02 21.23732 -158.35430 8185 ft 326 kts 50°
2026-05-03 22:02 21.25160 -158.33559 7181 ft 322 kts 50°
2026-05-03 22:03 21.26571 -158.31712 6176 ft 318 kts 50°
2026-05-03 22:03 21.27971 -158.29899 5175 ft 314 kts 50°
2026-05-03 22:03 21.29355 -158.28132 4581 ft 298 kts 50°
2026-05-03 22:03 21.30644 -158.26509 4272 ft 277 kts 50°
2026-05-03 22:04 21.31831 -158.24968 4079 ft 255 kts 53°
2026-05-03 22:04 21.32555 -158.23338 3961 ft 234 kts 72°
2026-05-03 22:04 21.32704 -158.21677 4062 ft 217 kts 86°
2026-05-03 22:04 21.32656 -158.20094 4031 ft 207 kts 91°
2026-05-03 22:05 21.32581 -158.18591 4015 ft 197 kts 92°
2026-05-03 22:05 21.32529 -158.17154 3987 ft 189 kts 91°
2026-05-03 22:05 21.32501 -158.15809 3869 ft 175 kts 90°
2026-05-03 22:05 21.32499 -158.14533 3682 ft 167 kts 89°
2026-05-03 22:06 21.32521 -158.13324 3525 ft 159 kts 88°
2026-05-03 22:06 21.32540 -158.12133 3310 ft 157 kts 88°
2026-05-03 22:06 21.32542 -158.10978 3076 ft 155 kts 89°
2026-05-03 22:06 21.32527 -158.09825 2866 ft 155 kts 90°
2026-05-03 22:07 21.32512 -158.08676 2648 ft 153 kts 89°
2026-05-03 22:07 21.32511 -158.07535 2431 ft 152 kts 89°
2026-05-03 22:07 21.32524 -158.06422 2226 ft 148 kts 88°
2026-05-03 22:07 21.32535 -158.05324 2023 ft 145 kts 88°
2026-05-03 22:08 21.32534 -158.04247 1838 ft 144 kts 89°
2026-05-03 22:08 21.32523 -158.03175 1647 ft 143 kts 89°
2026-05-03 22:08 21.32516 -158.02125 1467 ft 142 kts 89°
2026-05-03 22:08 21.32518 -158.01055 1290 ft 142 kts 89°
2026-05-03 22:09 21.32527 -158.00003 1094 ft 143 kts 89°
2026-05-03 22:09 21.32530 -157.98933 899 ft 143 kts 89°
2026-05-03 22:09 21.32527 -157.97869 708 ft 143 kts 89°
2026-05-03 22:10 21.32522 -157.95714 327 ft 147 kts 90°
2026-05-03 22:10 21.32524 -157.94634 124 ft 143 kts 90°
2026-05-03 22:10 21.32526 -157.93577 42 ft 136 kts 90°
2026-05-03 22:10 21.32528 -157.92688 26 ft 85 kts 90°
2026-05-03 22:11 21.32529 -157.92350 26 ft 16 kts 82°
2026-05-03 22:11 21.32582 -157.92275 26 ft 10 kts 17°
2026-05-03 22:11 21.32679 -157.92272 26 ft 18 kts 359°
2026-05-03 22:11 21.32783 -157.92284 26 ft 10 kts 328°
2026-05-03 22:12 21.32859 -157.92346 26 ft 17 kts 335°
2026-05-03 22:12 21.32887 -157.92360 26 ft 0 kts 336°